RYR728P LICJ-LIBD

Flight info

Callsign RYR728P
Flight time 0h 51m
Altitude 34000
Route ROSAS DCT AMANO P748 BUMOK
Aircraft B738/M-SDE3FGILRWY/SB1

Departure

Time 2026-04-26 18:59
Airport Falcone–Borsellino Airport (LICJ)

Arrival

Time 2026-04-26 19:50
Airport Bari Karol Wojtyła International Airport (LIBD)
Time Latitude Longitude Altitude Speed Heading
2026-04-26 18:23 38.18568 13.10666 47 ft 0 kts 337°
2026-04-26 18:24 38.18566 13.10667 47 ft 0 kts 337°
2026-04-26 18:51 38.18556 13.10672 50 ft 3 kts 337°
2026-04-26 18:51 38.18534 13.10684 47 ft 3 kts 337°
2026-04-26 18:52 38.18516 13.10694 45 ft 3 kts 324°
2026-04-26 18:52 38.18505 13.10710 47 ft 3 kts 259°
2026-04-26 18:52 38.18512 13.10736 46 ft 3 kts 248°
2026-04-26 18:52 38.18514 13.10744 52 ft 0 kts 248°
2026-04-26 18:54 38.18514 13.10743 52 ft 1 kts 248°
2026-04-26 18:54 38.18503 13.10708 51 ft 8 kts 247°
2026-04-26 18:55 38.18470 13.10610 51 ft 15 kts 247°
2026-04-26 18:55 38.18410 13.10512 52 ft 14 kts 201°
2026-04-26 18:55 38.18324 13.10456 51 ft 14 kts 236°
2026-04-26 18:55 38.18281 13.10332 52 ft 18 kts 247°
2026-04-26 18:56 38.18226 13.10168 51 ft 22 kts 247°
2026-04-26 18:56 38.18168 13.09995 52 ft 21 kts 247°
2026-04-26 18:56 38.18122 13.09872 51 ft 12 kts 219°
2026-04-26 18:56 38.18042 13.09852 49 ft 12 kts 229°
2026-04-26 18:57 38.18000 13.09728 50 ft 20 kts 247°
2026-04-26 18:57 38.17959 13.09607 52 ft 25 kts 246°
2026-04-26 18:57 38.17862 13.09319 52 ft 26 kts 247°
2026-04-26 18:57 38.17792 13.09110 52 ft 25 kts 247°
2026-04-26 18:58 38.17718 13.08933 52 ft 21 kts 219°
2026-04-26 18:58 38.17602 13.08820 52 ft 21 kts 217°
2026-04-26 18:58 38.17500 13.08776 51 ft 14 kts 136°
2026-04-26 18:58 38.17547 13.08996 51 ft 54 kts 66°
2026-04-26 18:59 38.17779 13.09686 50 ft 115 kts 66°
2026-04-26 18:59 38.18153 13.10820 111 ft 157 kts 68°
2026-04-26 18:59 38.18581 13.12090 729 ft 152 kts 66°
2026-04-26 18:59 38.19010 13.13344 1347 ft 159 kts 66°
2026-04-26 19:00 38.19489 13.14746 1592 ft 186 kts 67°
2026-04-26 19:00 38.20044 13.16348 1918 ft 206 kts 66°
2026-04-26 19:00 38.20630 13.18026 2445 ft 210 kts 65°
2026-04-26 19:00 38.21515 13.19492 3037 ft 214 kts 43°
2026-04-26 19:01 38.22731 13.20613 3667 ft 221 kts 26°
2026-04-26 19:01 38.24229 13.21428 3913 ft 246 kts 22°
2026-04-26 19:01 38.25886 13.22284 4339 ft 262 kts 22°
2026-04-26 19:01 38.27575 13.23159 4977 ft 268 kts 22°
2026-04-26 19:02 38.29318 13.24069 5682 ft 271 kts 22°
2026-04-26 19:02 38.31081 13.24996 6412 ft 276 kts 23°
2026-04-26 19:02 38.32867 13.25942 7109 ft 279 kts 23°
2026-04-26 19:02 38.34056 13.26573 7605 ft 281 kts 22°
2026-04-26 19:03 38.36484 13.27865 8619 ft 284 kts 22°
2026-04-26 19:03 38.38323 13.28844 9376 ft 288 kts 23°
2026-04-26 19:03 38.40166 13.29828 10135 ft 292 kts 23°
2026-04-26 19:03 38.42075 13.30847 10623 ft 306 kts 23°
2026-04-26 19:04 38.44125 13.31943 10794 ft 331 kts 23°
2026-04-26 19:04 38.46312 13.33111 11141 ft 347 kts 23°
2026-04-26 19:04 38.48541 13.34303 11770 ft 352 kts 22°
2026-04-26 19:04 38.50817 13.35520 12507 ft 356 kts 22°
2026-04-26 19:05 38.55432 13.37991 14022 ft 364 kts 22°
2026-04-26 19:05 38.57778 13.39248 14713 ft 367 kts 22°
2026-04-26 19:05 38.60142 13.40517 15486 ft 369 kts 22°
2026-04-26 19:06 38.62518 13.41793 16232 ft 372 kts 22°
2026-04-26 19:06 38.64919 13.43083 16916 ft 377 kts 23°
2026-04-26 19:06 38.67325 13.44378 17600 ft 381 kts 23°
2026-04-26 19:06 38.69781 13.45699 18311 ft 384 kts 23°
2026-04-26 19:07 38.72257 13.47033 18942 ft 388 kts 23°
2026-04-26 19:07 38.74757 13.48381 19560 ft 391 kts 23°
2026-04-26 19:07 38.77278 13.49741 20177 ft 394 kts 22°
2026-04-26 19:07 38.79827 13.51117 20727 ft 399 kts 22°
2026-04-26 19:08 38.82395 13.52504 21356 ft 401 kts 22°
2026-04-26 19:08 38.84943 13.53881 21973 ft 403 kts 22°
2026-04-26 19:08 38.87566 13.55187 22558 ft 406 kts 20°
2026-04-26 19:08 38.90244 13.56393 23095 ft 410 kts 19°
2026-04-26 19:09 38.92960 13.57572 23666 ft 413 kts 18°
2026-04-26 19:09 38.95689 13.58754 24137 ft 416 kts 18°
2026-04-26 19:09 38.98444 13.59958 24569 ft 419 kts 18°
2026-04-26 19:09 39.01215 13.61183 25022 ft 422 kts 19°
2026-04-26 19:10 39.03051 13.62001 25377 ft 422 kts 19°
2026-04-26 19:10 39.05834 13.63246 25846 ft 424 kts 19°
2026-04-26 19:10 39.08637 13.64505 26246 ft 428 kts 19°
2026-04-26 19:10 39.12382 13.66191 26778 ft 432 kts 19°
2026-04-26 19:11 39.15230 13.67475 27193 ft 434 kts 19°
2026-04-26 19:11 39.17169 13.68350 27472 ft 436 kts 19°
2026-04-26 19:11 39.20041 13.69646 27873 ft 439 kts 19°
2026-04-26 19:11 39.22891 13.70933 28265 ft 441 kts 19°
2026-04-26 19:12 39.25805 13.72250 28693 ft 442 kts 19°
2026-04-26 19:12 39.28729 13.73572 29074 ft 445 kts 19°
2026-04-26 19:12 39.31657 13.74898 29429 ft 448 kts 19°
2026-04-26 19:12 39.34578 13.76221 29786 ft 450 kts 19°
2026-04-26 19:13 39.37541 13.77565 30276 ft 449 kts 19°
2026-04-26 19:13 39.40412 13.79155 30725 ft 448 kts 28°
2026-04-26 19:13 39.43010 13.81296 31156 ft 448 kts 36°
2026-04-26 19:13 39.45358 13.83945 31573 ft 448 kts 45°
2026-04-26 19:14 39.47472 13.86901 31979 ft 447 kts 46°
2026-04-26 19:14 39.49557 13.89897 32323 ft 448 kts 47°
2026-04-26 19:14 39.51641 13.92907 32675 ft 448 kts 47°
2026-04-26 19:14 39.53030 13.94906 32936 ft 448 kts 46°
2026-04-26 19:15 39.55823 13.98902 33468 ft 447 kts 46°
2026-04-26 19:15 39.57915 14.01878 33828 ft 446 kts 46°
2026-04-26 19:15 39.60007 14.04847 34163 ft 447 kts 46°
2026-04-26 19:16 39.64222 14.10822 34170 ft 450 kts 46°
2026-04-26 19:16 39.68404 14.16764 34160 ft 441 kts 46°
2026-04-26 19:17 39.72528 14.22635 34186 ft 442 kts 46°
2026-04-26 19:17 39.76678 14.28556 34174 ft 443 kts 46°
2026-04-26 19:18 39.80836 14.34500 34166 ft 444 kts 46°
2026-04-26 19:18 39.85000 14.40465 34171 ft 445 kts 46°
2026-04-26 19:19 39.89165 14.46441 34168 ft 445 kts 46°
2026-04-26 19:19 39.93297 14.52395 34162 ft 445 kts 46°
2026-04-26 19:19 39.95388 14.55415 33657 ft 449 kts 47°
2026-04-26 19:20 39.97461 14.58412 33328 ft 440 kts 47°
2026-04-26 19:20 39.98815 14.60370 33051 ft 436 kts 47°
2026-04-26 19:20 40.01494 14.64248 32537 ft 429 kts 47°
2026-04-26 19:20 40.03492 14.67138 32083 ft 426 kts 47°
2026-04-26 19:21 40.05479 14.70011 31616 ft 424 kts 47°
2026-04-26 19:21 40.07429 14.72831 31167 ft 421 kts 47°
2026-04-26 19:21 40.09381 14.75659 30745 ft 418 kts 47°
2026-04-26 19:21 40.11320 14.78471 30336 ft 415 kts 47°
2026-04-26 19:22 40.13247 14.81267 29865 ft 412 kts 47°
2026-04-26 19:22 40.15164 14.84044 29370 ft 409 kts 46°
2026-04-26 19:22 40.17104 14.86760 28874 ft 406 kts 45°
2026-04-26 19:22 40.19049 14.89428 28381 ft 404 kts 45°
2026-04-26 19:23 40.20988 14.92073 27903 ft 401 kts 45°
2026-04-26 19:23 40.22913 14.94705 27431 ft 399 kts 45°
2026-04-26 19:23 40.24806 14.97302 26959 ft 397 kts 45°
2026-04-26 19:23 40.26706 14.99920 26516 ft 395 kts 45°
2026-04-26 19:24 40.28595 15.02528 26085 ft 393 kts 45°
2026-04-26 19:24 40.30471 15.05124 25660 ft 391 kts 45°
2026-04-26 19:24 40.34194 15.10281 24819 ft 387 kts 45°
2026-04-26 19:25 40.36045 15.12851 24410 ft 386 kts 45°
2026-04-26 19:25 40.37264 15.14543 24125 ft 385 kts 45°
2026-04-26 19:25 40.39694 15.17918 23566 ft 383 kts 45°
2026-04-26 19:25 40.41526 15.20464 23111 ft 380 kts 45°
2026-04-26 19:26 40.43337 15.22986 22668 ft 378 kts 45°
2026-04-26 19:26 40.45138 15.25496 22238 ft 376 kts 45°
2026-04-26 19:26 40.46930 15.27995 21814 ft 374 kts 45°
2026-04-26 19:26 40.48691 15.30453 21377 ft 373 kts 45°
2026-04-26 19:27 40.50466 15.32933 20934 ft 372 kts 45°
2026-04-26 19:27 40.52235 15.35407 20533 ft 370 kts 45°
2026-04-26 19:27 40.53994 15.37869 20148 ft 368 kts 45°
2026-04-26 19:27 40.55745 15.40322 19707 ft 367 kts 45°
2026-04-26 19:28 40.57491 15.42769 19305 ft 366 kts 45°
2026-04-26 19:28 40.59208 15.45177 18934 ft 364 kts 45°
2026-04-26 19:28 40.60907 15.47643 18557 ft 364 kts 49°
2026-04-26 19:28 40.62438 15.50302 18145 ft 363 kts 53°
2026-04-26 19:29 40.63886 15.53019 17775 ft 360 kts 53°
2026-04-26 19:29 40.65312 15.55719 17433 ft 356 kts 53°
2026-04-26 19:29 40.66731 15.58370 17065 ft 353 kts 53°
2026-04-26 19:29 40.68156 15.60997 16704 ft 350 kts 53°
2026-04-26 19:30 40.69557 15.63565 16357 ft 347 kts 53°
2026-04-26 19:30 40.70963 15.66151 16017 ft 345 kts 54°
2026-04-26 19:30 40.72102 15.68930 15661 ft 343 kts 66°
2026-04-26 19:30 40.72692 15.70872 15453 ft 341 kts 68°
2026-04-26 19:31 40.73811 15.74716 15018 ft 338 kts 68°
2026-04-26 19:31 40.74649 15.77601 14674 ft 335 kts 68°
2026-04-26 19:31 40.75484 15.80451 14350 ft 332 kts 68°
2026-04-26 19:31 40.76324 15.83291 14023 ft 329 kts 68°
2026-04-26 19:32 40.77156 15.86093 13658 ft 327 kts 68°
2026-04-26 19:32 40.77987 15.88881 13261 ft 325 kts 68°
2026-04-26 19:32 40.78803 15.91619 12892 ft 324 kts 68°
2026-04-26 19:32 40.79625 15.94375 12584 ft 320 kts 68°
2026-04-26 19:33 40.80425 15.97064 12493 ft 309 kts 68°
2026-04-26 19:33 40.81197 15.99658 12422 ft 298 kts 68°
2026-04-26 19:33 40.81944 16.02172 12337 ft 288 kts 67°
2026-04-26 19:33 40.82738 16.04559 12218 ft 280 kts 56°
2026-04-26 19:34 40.83905 16.06577 12014 ft 274 kts 49°
2026-04-26 19:34 40.85120 16.08475 11740 ft 273 kts 49°
2026-04-26 19:34 40.86349 16.10392 11485 ft 272 kts 49°
2026-04-26 19:34 40.87563 16.12300 11231 ft 270 kts 49°
2026-04-26 19:35 40.88766 16.14207 10963 ft 269 kts 49°
2026-04-26 19:35 40.89960 16.16111 10706 ft 268 kts 49°
2026-04-26 19:35 40.91131 16.17986 10453 ft 267 kts 49°
2026-04-26 19:35 40.92311 16.19881 10199 ft 266 kts 49°
2026-04-26 19:36 40.93485 16.21772 9936 ft 265 kts 49°
2026-04-26 19:36 40.94260 16.23022 9757 ft 264 kts 49°
2026-04-26 19:36 40.95817 16.25534 9378 ft 263 kts 49°
2026-04-26 19:36 40.96974 16.27404 9104 ft 262 kts 49°
2026-04-26 19:37 40.98108 16.29238 8893 ft 259 kts 49°
2026-04-26 19:37 40.99232 16.31056 8800 ft 250 kts 49°
2026-04-26 19:37 41.00320 16.32819 8658 ft 245 kts 49°
2026-04-26 19:37 41.01398 16.34566 8400 ft 245 kts 49°
2026-04-26 19:38 41.02467 16.36318 8155 ft 244 kts 50°
2026-04-26 19:38 41.03514 16.38091 7913 ft 244 kts 50°
2026-04-26 19:38 41.04566 16.39843 7727 ft 240 kts 49°
2026-04-26 19:38 41.05574 16.41525 7763 ft 227 kts 49°
2026-04-26 19:39 41.06502 16.43200 7790 ft 223 kts 53°
2026-04-26 19:39 41.07378 16.44894 7807 ft 229 kts 53°
2026-04-26 19:39 41.08294 16.46675 7818 ft 244 kts 53°
2026-04-26 19:39 41.09313 16.48648 7833 ft 268 kts 54°
2026-04-26 19:40 41.10380 16.50714 7798 ft 273 kts 54°
2026-04-26 19:40 41.11449 16.52781 7782 ft 271 kts 54°
2026-04-26 19:40 41.12515 16.54839 7718 ft 269 kts 53°
2026-04-26 19:40 41.13574 16.56881 7640 ft 270 kts 53°
2026-04-26 19:41 41.14644 16.58939 7386 ft 276 kts 53°
2026-04-26 19:41 41.15734 16.61039 7141 ft 275 kts 53°
2026-04-26 19:41 41.16817 16.63126 6891 ft 273 kts 53°
2026-04-26 19:41 41.17528 16.64497 6720 ft 271 kts 53°
2026-04-26 19:42 41.18952 16.67241 6403 ft 268 kts 54°
2026-04-26 19:42 41.20004 16.69270 6146 ft 266 kts 54°
2026-04-26 19:42 41.21052 16.71291 5896 ft 263 kts 54°
2026-04-26 19:42 41.22074 16.73266 5649 ft 261 kts 54°
2026-04-26 19:43 41.23101 16.75248 5396 ft 260 kts 54°
2026-04-26 19:43 41.24125 16.77228 5148 ft 258 kts 54°
2026-04-26 19:43 41.25136 16.79184 4901 ft 256 kts 54°
2026-04-26 19:43 41.26131 16.81108 4648 ft 255 kts 53°
2026-04-26 19:44 41.27132 16.83053 4400 ft 253 kts 55°
2026-04-26 19:44 41.27897 16.85167 4146 ft 255 kts 68°
2026-04-26 19:44 41.28482 16.87392 3903 ft 254 kts 68°
2026-04-26 19:44 41.29073 16.89601 3663 ft 254 kts 70°
2026-04-26 19:45 41.29202 16.91914 3388 ft 258 kts 101°
2026-04-26 19:45 41.28397 16.94032 3145 ft 259 kts 133°
2026-04-26 19:45 41.26929 16.95373 2908 ft 256 kts 156°
2026-04-26 19:45 41.25269 16.96237 2680 ft 255 kts 161°
2026-04-26 19:46 41.23621 16.97018 2570 ft 245 kts 161°
2026-04-26 19:46 41.22041 16.97462 2502 ft 227 kts 186°
2026-04-26 19:46 41.20633 16.96872 2506 ft 203 kts 215°
2026-04-26 19:46 41.19623 16.95682 2483 ft 187 kts 241°
2026-04-26 19:47 41.19068 16.94186 2493 ft 178 kts 250°
2026-04-26 19:47 41.18745 16.93187 2490 ft 177 kts 251°
2026-04-26 19:47 41.18129 16.91120 2308 ft 182 kts 252°
2026-04-26 19:47 41.17678 16.89552 2072 ft 181 kts 253°
2026-04-26 19:48 41.17235 16.87999 1834 ft 178 kts 253°
2026-04-26 19:48 41.16806 16.86489 1595 ft 176 kts 252°
2026-04-26 19:48 41.16384 16.85002 1356 ft 167 kts 252°
2026-04-26 19:48 41.15993 16.83625 1171 ft 152 kts 252°
2026-04-26 19:49 41.15629 16.82336 957 ft 148 kts 250°
2026-04-26 19:49 41.15251 16.81045 743 ft 151 kts 249°
2026-04-26 19:49 41.14887 16.79734 530 ft 151 kts 249°
2026-04-26 19:49 41.14522 16.78441 304 ft 149 kts 249°
2026-04-26 19:50 41.14164 16.77167 131 ft 145 kts 248°
2026-04-26 19:50 41.13859 16.76086 134 ft 96 kts 250°
2026-04-26 19:50 41.13668 16.75412 140 ft 67 kts 249°
2026-04-26 19:50 41.13537 16.74948 137 ft 39 kts 249°
2026-04-26 19:51 41.13468 16.74743 139 ft 13 kts 213°
2026-04-26 19:51 41.13391 16.74779 145 ft 13 kts 120°
2026-04-26 19:51 41.13347 16.74881 147 ft 13 kts 112°
2026-04-26 19:51 41.13364 16.75000 146 ft 16 kts 68°
2026-04-26 19:52 41.13413 16.75169 144 ft 24 kts 69°
2026-04-26 19:52 41.13480 16.75404 141 ft 28 kts 69°
2026-04-26 19:52 41.13546 16.75640 137 ft 27 kts 69°
2026-04-26 19:52 41.13611 16.75865 136 ft 22 kts 69°
2026-04-26 19:53 41.13640 16.75998 135 ft 14 kts 97°
2026-04-26 19:53 41.13579 16.76087 135 ft 13 kts 141°
2026-04-26 19:53 41.13561 16.76191 135 ft 13 kts 70°
2026-04-26 19:53 41.13561 16.76269 135 ft 7 kts 153°
2026-04-26 19:54 41.13519 16.76290 135 ft 2 kts 159°
2026-04-26 19:54 41.13509 16.76294 135 ft 0 kts 159°